Home > Weather > Bardufoss > Past weeks

Flag for Norway Past Weather in Bardufoss, Norway — Yesterday and Last 2 Weeks

Now
45 °F

Overcast.


Feels Like: 45 °F
Forecast: 39 / 57 °F
Wind: No wind

Location: Bardufoss

Current Time: Aug 25, 2016 at 1:40:23 AM

Latest Report: Aug 25, 2016 at 12:50 AM


Visibility: N/A

Pressure: 29.98 "Hg

Humidity: 100%

Dew Point: 45 °F

Location of BardufossLocation

Past Weather in Bardufoss — Graph

°F

Bardufoss Temperature Yesterday

Maximum temperature yesterday: 64 °F (at 4:20 PM)
Minimum temperature yesterday: 45 °F (at 4:20 AM)
Average temperature yesterday: 53 °F

High & Low Weather Summary for the Past Weeks

 TemperatureHumidityPressure
High79 °F (Aug 18, 2:50 PM)100% (Aug 10, 5:50 AM)30.30 "Hg (Aug 10, 5:50 AM)
Low34 °F (Aug 11, 1:20 AM)39% (Aug 18, 2:50 PM)29.50 "Hg (Aug 10, 12:20 AM)
Average54 °F80%29.98 "Hg
* Reported Aug 10 12:20 AM — Aug 25 12:20 AM, Bardufoss, Weather by CustomWeather, © 2016

Note: Actual official high and low records may vary slightly from our data, if they occured in-between our weather recording intervals... More about our weather records

Advertising

Bardufoss Weather History for the Previous 24 Hours

Scroll right to see more
 ConditionsComfort  
Time TempWeatherWind HumidityBarometerVisibility
12:20 AM
Thu, Aug 25
45 °FOvercast.No wind100%29.98 "HgN/A
11:50 PM
Wed, Aug 24
45 °FOvercast.No wind100%29.98 "HgN/A
11:20 PM45 °FOvercast.No wind100%30.01 "HgN/A
10:50 PM46 °FClear.No wind93%30.01 "Hg10 mi
9:50 PM50 °FSunny.1 mph94%30.04 "Hg10 mi
8:50 PM52 °FSunny.2 mph82%30.04 "Hg10 mi
7:50 PM59 °FSunny.9 mph68%30.07 "Hg10 mi
6:50 PM61 °FSunny.7 mph59%30.07 "Hg10 mi
6:20 PM61 °FSunny.6 mph55%30.09 "Hg10 mi
5:50 PM63 °FPassing clouds.5 mph52%30.09 "HgN/A
5:20 PM64 °FSunny.5 mph52%30.09 "Hg10 mi
4:50 PM63 °FSunny.2 mph52%30.12 "Hg10 mi
4:20 PM64 °FSunny.2 mph49%30.12 "Hg10 mi
3:50 PM63 °FPassing clouds.3 mph52%30.15 "HgN/A
3:20 PM63 °FSunny.1 mph49%30.15 "Hg10 mi
2:50 PM63 °FSunny.1 mph56%30.18 "Hg10 mi
2:20 PM61 °FSunny.1 mph52%30.18 "Hg10 mi
1:50 PM59 °FPassing clouds.3 mph51%30.18 "HgN/A
1:20 PM59 °FSunny.2 mph55%30.21 "Hg10 mi
12:50 PM57 °FPassing clouds.2 mph55%30.21 "HgN/A
12:20 PM57 °FPassing clouds.No wind55%30.21 "HgN/A
11:50 AM57 °FPassing clouds.1 mph59%30.24 "HgN/A
11:20 AM57 °FPassing clouds.2 mph55%30.24 "HgN/A
10:50 AM55 °FPassing clouds.1 mph59%30.24 "HgN/A
10:20 AM55 °FScattered clouds.5 mph63%30.27 "HgN/A
9:50 AM52 °FScattered clouds.5 mph77%30.27 "HgN/A
9:20 AM52 °FPartly sunny.3 mph82%30.27 "HgN/A
8:50 AM50 °FPartly sunny.3 mph88%30.27 "HgN/A
8:20 AM50 °FPartly sunny.1 mph88%30.27 "HgN/A
7:50 AM48 °FPartly sunny.1 mph87%30.27 "HgN/A
7:20 AM46 °FPartly sunny.2 mph93%30.27 "HgN/A
6:50 AM46 °FPartly sunny.2 mph93%30.27 "HgN/A
6:20 AM45 °FPartly sunny.No wind100%30.27 "HgN/A
5:50 AM45 °FFog.1 mph93%30.27 "HgN/A
5:20 AM45 °FFog.2 mph93%30.27 "HgN/A
4:50 AM45 °FOvercast.No wind93%30.27 "HgN/A
4:20 AM45 °FOvercast.1 mph93%30.30 "HgN/A
3:50 AM46 °FOvercast.No wind93%30.27 "HgN/A
3:20 AM46 °FOvercast.1 mph93%30.27 "HgN/A
2:50 AM46 °FOvercast.1 mph93%30.27 "HgN/A
2:20 AM46 °FOvercast.1 mph93%30.27 "HgN/A
1:50 AM46 °FOvercast.No wind93%30.27 "HgN/A
1:20 AM46 °FPassing clouds.1 mph100%30.27 "HgN/A
Weather by CustomWeather, © 2016

See weather overviewHow to use our weather pages